Miscellaneous Local Product
Issued by NWS North Platte, NE

Home | Current Version | Previous Version | Text Only | Print | Product List | Glossary On
Versions: 1 2 3 4 5 6 7 8 9 10 11 12 13 14 15 16 17 18 19 20 21 22 23 24 25 26 27 28 29 30 31 32 33 34 35 36 37 38 39 40 41 42 43 44 45 46 47 48 49 50
000
AXUS43 KLBF 212210
MISLBF


WESTERN AND NORTH CENTRAL NEBRASKA HOURLY WEATHER ROUNDUP
NATIONAL WEATHER SERVICE NORTH PLATTE NE
500 PM CDT THU AUG 21 2014

***STATIONS NOT REPORTING VARIABLES SUCH AS SKY/WEATHER OR
PRESSURE ARE PROVIDED BY THE NEBRASKA DEPARTMENT OF
ROADS...RAWS...AND APRS NETWORKS...AND ARE NOT UNDER
NATIONAL WEATHER SERVICE QUALITY CONTROL***

...OBSERVATIONS IN AND NEAR THE EASTERN PANHANDLE OF NEBRASKA...

CITY           SKY/WX    TMP DP  RH WIND       PRES   REMARKS
PINE RIDGE     SUNNY     85  57  38 E8        29.96F
CHADRON        MOSUNNY   89  54  30 SE13G21   29.93S
ALLIANCE       PTSUNNY   85  49  28 E8        29.99S
SIDNEY         MOSUNNY   89  46  22 CALM      30.03S
WHITECLAY        N/A     87  56  34 E6          N/A
RUSHVILLE        N/A     87  49  26 SE8         N/A
GORDON           N/A     95  56  27 SE8         N/A  HX  93
CRESCENT LAKE    N/A     85  49  28 CALM        N/A
LISCO            N/A     92  42  17 SW8         N/A
BIG SPRINGS      N/A     88  59  37 CALM        N/A
$$

...OBSERVATIONS IN NORTH CENTRAL NEBRASKA...

CITY           SKY/WX    TMP DP  RH WIND       PRES   REMARKS
VALENTINE      SUNNY     89  55  31 E5        29.93S
THEDFORD       SUNNY     88  60  38 NE5       29.95S
AINSWORTH      SUNNY     85  59  40 E6        29.92S
O`NEILL        SUNNY     87  68  52 N6        29.88S HX  91
ORD            SUNNY     90  69  50 N3        29.87R HX  94
BROKEN BOW     SUNNY     89  69  51 N7        29.91R HX  93
BROWNLEE         N/A     97  60  28 SE6         N/A  HX  97
SPRINGVIEW       N/A     89  64  42 NW5         N/A  HX  90
ROSE             N/A     92  66  43 S5          N/A  HX  94
NEWPORT          N/A     88  62  41 W7          N/A
SARGENT          N/A     88  69  52 CALM        N/A  HX  92
COMSTOCK         N/A     94  70  46 CALM        N/A  HX 100
CHAMBERS         N/A     89  63  41 N6          N/A
EWING            N/A     87  75  67 CALM        N/A  HX  96
$$

...OBSERVATIONS IN SOUTHWEST NEBRASKA AND FAR NORTHEAST COLORADO...

CITY           SKY/WX    TMP DP  RH WIND       PRES   REMARKS
WRAY             N/A     94  46  19 N8        29.98S HX  90
IMPERIAL       SUNNY     90  52  27 NW9       29.95S
OGALLALA       SUNNY     88  52  28 CALM      29.94S
NORTH PLATTE   SUNNY     89  65  44 SE7       29.91R HX  91
MCCOOK         MOSUNNY   93  53  25 NW3       29.89S HX  90
LEXINGTON      SUNNY     89  68  49 CALM      29.89S HX  92
PAXTON           N/A     91  54  28 CALM        N/A
SUTHERLAND       N/A     96  55  24 SE5         N/A  HX  94
BRADY            N/A     88  69  53 CALM        N/A  HX  92
GOTHENBURG       N/A     89  63  41 N3          N/A
CALLAWAY         N/A     90  75  60 E7          N/A  HX 100
$$

...SOME WEATHER OBSERVATIONS FROM AROUND THE REGION...

CITY           SKY/WX    TMP DP  RH WIND       PRES   REMARKS
DENVER         PTSUNNY   83  42  23 E5        30.08F
LARAMIE        PTSUNNY   73  39  29 W15G21    30.22S
CHEYENNE       PTSUNNY   78  40  25 W8G18     30.14R
SCOTTSBLUFF    MOSUNNY   89  46  22 NW6       30.00S
RAPID CITY     MOSUNNY   78  58  49 NE5       29.95F
PIERRE         SUNNY     86  61  42 CALM      29.86S
WINNER         FAIR      89  58  34 N8        29.90R
SIOUX FALLS    PTSUNNY   87  71  58 NW9       29.83R HX  93
OMAHA          MOSUNNY   92  70  48 SW8       29.83S HX  97
GRAND ISLAND   SUNNY     87  72  60 SE5       29.87S HX  93
KANSAS CITY    MOSUNNY   94  73  50 S13       29.85F HX 103
WICHITA        MOSUNNY   98  66  34 S24G35    29.85F HX 101
HAYS           MOSUNNY  100  64  30 S17       29.82F HX 103
LIBERAL        SUNNY    102  54  19 SW12      29.89S HX 100
GOODLAND       SUNNY     95  48  20 N13G18    29.97S HX  91
$$



USA.gov is the U.S. government's official web portal to all federal, state and local government web resources and services.